TimeCDT,TemperatureF,Dew PointF,Humidity,Sea Level PressureIn,VisibilityMPH,Wind Direction,Wind SpeedMPH,Gust SpeedMPH,PrecipitationIn,Events,Conditions,WindDirDegrees,DateUTC
12:54 AM,46.0,44.1,93,29.86,10.0,Calm,Calm,-,N/A,,Clear,0,2012-09-22 05:54:00
1:54 AM,46.9,44.1,90,29.87,10.0,WSW,3.5,-,N/A,,Clear,250,2012-09-22 06:54:00
2:54 AM,46.0,44.1,93,29.86,9.0,SW,5.8,-,N/A,,Clear,230,2012-09-22 07:54:00
3:54 AM,46.0,44.1,93,29.86,9.0,Calm,Calm,-,N/A,,Partly Cloudy,0,2012-09-22 08:54:00
4:54 AM,45.0,43.0,93,29.88,7.0,SW,3.5,-,N/A,,Partly Cloudy,220,2012-09-22 09:54:00
5:54 AM,46.9,45.0,93,29.90,8.0,WSW,5.8,-,N/A,,Mostly Cloudy,240,2012-09-22 10:54:00
6:54 AM,48.9,46.0,90,29.93,10.0,WNW,10.4,-,N/A,,Mostly Cloudy,290,2012-09-22 11:54:00
7:54 AM,48.9,43.0,80,29.98,10.0,NW,8.1,17.3,N/A,,Clear,320,2012-09-22 12:54:00
8:54 AM,48.0,33.1,56,30.03,10.0,NNW,16.1,26.5,N/A,,Clear,340,2012-09-22 13:54:00
9:54 AM,50.0,30.9,48,30.06,10.0,NNW,11.5,23.0,N/A,,Clear,340,2012-09-22 14:54:00
10:54 AM,52.0,30.9,45,30.08,10.0,NNW,13.8,24.2,N/A,,Clear,330,2012-09-22 15:54:00
11:54 AM,53.1,32.0,45,30.10,10.0,NNW,10.4,25.3,N/A,,Clear,340,2012-09-22 16:54:00
12:54 PM,55.0,33.1,43,30.11,10.0,NW,10.4,19.6,N/A,,Clear,320,2012-09-22 17:54:00
1:54 PM,57.0,34.0,42,30.12,10.0,North,9.2,20.7,N/A,,Clear,350,2012-09-22 18:54:00
2:54 PM,59.0,34.0,39,30.13,10.0,NW,13.8,18.4,N/A,,Clear,320,2012-09-22 19:54:00
3:54 PM,60.1,34.0,38,30.12,10.0,NNW,11.5,-,N/A,,Clear,340,2012-09-22 20:54:00
4:54 PM,59.0,35.1,41,30.15,10.0,NW,10.4,17.3,N/A,,Clear,320,2012-09-22 21:54:00
5:54 PM,59.0,34.0,39,30.16,10.0,WNW,6.9,-,N/A,,Clear,290,2012-09-22 22:54:00
6:54 PM,55.9,37.0,49,30.17,10.0,Calm,Calm,-,N/A,,Partly Cloudy,0,2012-09-22 23:54:00
7:54 PM,53.1,39.0,59,30.19,10.0,NW,3.5,-,N/A,,Overcast,320,2012-09-23 00:54:00
8:54 PM,50.0,39.0,66,30.21,10.0,WNW,3.5,-,N/A,,Clear,300,2012-09-23 01:54:00
9:54 PM,48.9,39.0,69,30.22,10.0,Calm,Calm,-,N/A,,Clear,0,2012-09-23 02:54:00
10:54 PM,48.0,39.9,74,30.23,10.0,Calm,Calm,-,N/A,,Clear,0,2012-09-23 03:54:00
11:54 PM,46.0,39.0,76,30.24,10.0,NW,3.5,-,N/A,,Clear,320,2012-09-23 04:54:00